This is the latest recevied weather packets stored in our database for station/object KB4RFE. If no packets are shown the sender has not sent any weather packets the latest 10 day(s).
| Time | Temp. | Humidity | Pressure | Rain* | Wind** | Luminosity | Snow |
|---|---|---|---|---|---|---|---|
| 1788366639 | 31.67° C | 71% | 1021.5 hPa | 0 mm | - | 749 W/m² | - |
| 1788366339 | 31.67° C | 71% | 1021.6 hPa | 0 mm | - | 762 W/m² | - |
| 1788366034 | 31.67° C | 67% | 1021.8 hPa | 0 mm | - | 751 W/m² | - |
| 1788365729 | 31.67° C | 71% | 1021.7 hPa | 0 mm | - | 746 W/m² | - |
| 1788365425 | 31.67° C | 69% | 1021.6 hPa | 0 mm | - | 742 W/m² | - |
| 1788365121 | 31.67° C | 69% | 1021.9 hPa | 0 mm | - | 741 W/m² | - |
| 1788364821 | 31.67° C | 71% | 1021.8 hPa | 0 mm | - | 739 W/m² | - |
| 1788364514 | 31.67° C | 70% | 1021.8 hPa | 0 mm | - | 732 W/m² | - |
| 1788364213 | 31.67° C | 73% | 1021.8 hPa | 0 mm | - | 728 W/m² | - |
| 1788363908 | 31.67° C | 69% | 1022.1 hPa | 0 mm | - | 721 W/m² | - |
| 1788363603 | 31.67° C | 72% | 1021.8 hPa | 0 mm | - | 716 W/m² | - |
| 1788363301 | 31.67° C | 71% | 1021.8 hPa | 0 mm | - | 707 W/m² | - |
| 1788362997 | 32.22° C | 71% | 1021.9 hPa | 0 mm | - | 699 W/m² | - |
| 1788362688 | 32.22° C | 73% | 1022 hPa | 0 mm | - | 688 W/m² | - |
| 1788362383 | 32.22° C | 69% | 1021.9 hPa | 0 mm | - | 676 W/m² | - |
| 1788362079 | 31.67° C | 72% | 1021.9 hPa | 0 mm | - | 660 W/m² | - |
| 1788361779 | 32.22° C | 69% | 1021.7 hPa | 0 mm | - | 656 W/m² | - |
| 1788361475 | 32.22° C | 69% | 1021.9 hPa | 0 mm | - | 640 W/m² | - |
| 1788361174 | 32.22° C | 69% | 1021.8 hPa | 0 mm | - | 626 W/m² | - |
| 1788360870 | 32.78° C | 66% | 1021.8 hPa | 0 mm | - | 612 W/m² | - |
| 1788360570 | 32.78° C | 64% | 1021.9 hPa | 0 mm | - | 603 W/m² | - |
| 1788360266 | 32.22° C | 67% | 1021.8 hPa | 0 mm | - | 595 W/m² | - |
| 1788359966 | 31.67° C | 70% | 1021.8 hPa | 0 mm | - | 575 W/m² | - |
| 1788359661 | 31.11° C | 74% | 1021.8 hPa | 0 mm | - | 562 W/m² | - |
| 1788359356 | 30.56° C | 74% | 1021.8 hPa | 0 mm | - | 544 W/m² | - |
* Rain latest hour (hover to see other rain measurements)
** Current wind speed in m/s (hover to see current wind gust speed)